Regional Weather Roundup
Issued by NWS

Home | Current Version | Previous Version | Text Only | Print | Product List | Glossary Off
Versions: 1 2 3 4 5 6 7 8 9 10 11 12 13 14 15 16 17 18 19 20 21 22 23 24 25 26 27 28 29 30 31 32 33 34 35 36 37 38 39 40 41 42 43 44

000
ASUS45 KTFX 290210
RWRMT
MONTANA REGIONAL WEATHER ROUNDUP
NATIONAL WEATHER SERVICE GREAT FALLS MT
800 PM MDT SUN JUN 28 2015

NOTE: "FAIR" INDICATES FEW OR NO CLOUDS BELOW 12000 FEET WITH NO
SIGNIFICANT WEATHER AND/OR OBSTRUCTIONS TO VISIBILITY.

MTZ001>007-043-290300-
WEST OF THE DIVIDE

CITY           SKY/WX    TMP DP  RH WIND       PRES   REMARKS
DEER LODGE       N/A     90  45  20 NE8G16    30.13R
EUREKA           N/A     99  46  16 W3        29.92F HX  95
HAMILTON         N/A     91  52  25 N5        29.98R
PLAINS           N/A    102  59  24 CALM      29.91S HX 102
RONAN            N/A     91  61  36 N5        30.01F HX  91
$$

MTZ008-052>055-290300-
SOUTHWEST MONTANA

CITY           SKY/WX    TMP DP  RH WIND       PRES   REMARKS
THREE FORKS      N/A     93  46  19 E9        30.06R
TWIN BRIDGES     N/A     95  42  16 NW7       30.08R HX  91
$$

MTZ009-010-012-014-046-048-049-054-290300-
EAST SLOPES AND CENTRAL MONTANA

CITY           SKY/WX    TMP DP  RH WIND       PRES   REMARKS
MALMSTROM AFB  MOSUNNY   92  47  21 E7        30.04S
CONRAD           N/A     87  61  41 N5        30.10R
$$

MTZ011-013-016-021-045-047-050-051-290300-
NORTH CENTRAL MONTANA

CITY           SKY/WX    TMP DP  RH WIND       PRES   REMARKS
CHINOOK          N/A     93  52  24 NE3       29.96R HX  90
FORT BENTON      N/A     95  43  16 N12       30.00R HX  91
$$

MTZ017>020-022>027-061-062-290300-
NORTHEAST MONTANA

CITY           SKY/WX    TMP DP  RH WIND       PRES   REMARKS
JORDAN           N/A     92  56  29 E5        29.97R HX  90
MALTA            N/A     97  58  27 CALM      29.92S HX  96
PLENTYWOOD       N/A     82  55  39 NE6       29.97F
POPLAR           N/A    N/A N/A N/A E3        29.97R
$$

MTZ028>42-056>058-290300-
SOUTHCENTRAL AND SOUTHEAST MONTANA

CITY           SKY/WX    TMP DP  RH WIND       PRES   REMARKS
BIG TIMBER       N/A     84  52  32 CALM      30.14R
FORSYTH          N/A     93  43  17 N8        29.95R
LAUREL           N/A     88  53  30 CALM      30.04S
ROUNDUP          N/A     92  48  22 W3        29.96R
$$

REGIONAL REPORTS...DAKOTAS

CITY           SKY/WX    TMP DP  RH WIND       PRES   REMARKS
BUFFALO SD       N/A     78  60  53 E10       29.97S
$$

REGIONAL REPORTS...WYOMING/IDAHO/WASHINGTON

CITY           SKY/WX    TMP DP  RH WIND       PRES   REMARKS
YELLOWSTONE LA   N/A     75  34  22 VRB3      30.41R
$$

REGIONAL REPORTS...ALBERTA

CITY           SKY/WX    TMP DP  RH WIND       PRES   REMARKS
EDMONTON       SUNNY     82  54  36 N5        30.02S
CALGARY        MOSUNNY   84  54  34 E9G17     30.10F
LETHBRIDGE     PTSUNNY   84  64  51 W3        30.06R
MEDICINE HAT   MOSUNNY   95  43  16 N14       29.98R HX  91
WATERTON GATE    N/A    N/A N/A N/A NE6         N/A
CARDSTON         N/A     82  61  47 NE5         N/A
ONEFOUR          N/A     91  41  17 N15G23      N/A
$$

REGIONAL REPORTS...SASKATCHEWAN

CITY           SKY/WX    TMP DP  RH WIND       PRES   REMARKS
SWIFT CURRENT  SUNNY     82  64  54 S6        29.98S
REGINA         PTCLDY    81  54  39 N6        29.96S
SASKATOON      PTSUNNY   77  63  61 NW3       29.94S
CYPRESS HILLS    N/A     82  46  28 NE5         N/A
VAL MARIE        N/A     88  54  31 NE3         N/A
ROCKGLEN         N/A     82  54  36 NE1         N/A
$$


USA.gov is the U.S. government's official web portal to all federal, state and local government web resources and services.